User: anonymous   Login
Location: Unspecified
(0.0000°N, 0.0000°E)
Time: 15:15:36
(UTC+00:00)
Language:

LightSail 2 - Orbit

View from above orbital plane
View from above orbital plane
View from above satellite
View from above satellite

Ground track
Ground track

The orbit data is extracted from the following two-line orbital elements,

1 44420U 19036AC  20292.46733399 +.00006178 +00000-0 +13012-2 0  9993
2 44420 024.0078 049.8735 0019893 029.2928 330.8676 14.56857842068260
Epoch (UTC): 18 October 2020 11:12:57
Eccentricity: 0.0019893
inclination: 24.0078°
perigee height: 689 km
apogee height: 717 km
right ascension of ascending node: 49.8735°
argument of perigee: 29.2928°
revolutions per day: 14.56857842
mean anomaly at epoch: 330.8676°
orbit number at epoch: 6826

The dashed part of the orbit path shows where the satellite is in the earth's shadow,  

DLR